Location: Baumgartsau
(48.4586°N, 14.0864°E)
Time: 18:41:08
(UTC+00:00)

Cosmos 2322 Rocket - Pass Details

Date: 09 April 2020
Orbit: 834 x 849 km, 71.0° (Epoch: 23 May)

Event Time Altitude Azimuth Distance (km) Brightness Sun altitude
Rises 23:19:58 0° 325° (NW) 3,403 6.0 -33.4°
Reaches altitude 10° 23:22:37 10° 317° (NW) 2,462 5.0 -33.4°
Enters shadow 23:25:03 23° 299° (WNW) 1,723 3.9 -33.3°
